SCP
0 0 0 0 0 0 0 0 0 0 0 0 0 0 0 0 0 0 0 0 0 0 0 0 0 0 0 0 0 0 0 0 0 0 0 0 0 0 -0 0 0 0 0
0 0 0 0 0 0 0 0 0 0 0 0 0 0 0 0 0 0 0 0 0 0 0 0 0 0 0 0 0 0 0 0 0 0 0 0 0 0 -0 0 0 0 0
0 0 0 0 0 0 0 0 0 0 0 0 0 0 0 0 0 0 0 0 0 0 0 0 0 0 0 0 0 0 0 0 0 0 0 0 0 0 -0 0 0 0 -0
0 0 0 0 0 0 0 0 0 0 0 0 0 0 0 0 0 0 0 0 0 0 0 0 0 0 0 0 0 0 0 0 0 0 0 0 0 0 0 -0 0 -0 -0
0 0 0 0 0 0 0 0 0 0 0 0 0 0 0 0 0 0 0 0 0 0 0 0 0 0 0 0 0 0 0 0 0 0 0 0 0 0 0 0 -0 -0 -0
0 0 0 0 0 0 0 0 0 0 0 0 0 0 0 0 0 0 0 0 0 0 0 0 0 0 0 0 0 0 0 0 0 0 0 0 0 0 0 0 0 0 -0
0 0 0 0 0 0 0 0 0 0 0 0 0 0 0 0 0 0 0 0 0 0 0 0 0 0 0 0 0 0 0 0 0 0 0 0 0 0 0 0 0 0 0
0 0 0 0 0 0 0 0 0 0 0 0 0 0 0 0 0 0 0 0 0 0 0 0 0 0 0 0 0 0 0 0 0 0 0 0 0 0 0 0 0 0 0
0 0 0 0 0 0 0 0 0 0 0 0 0 0 0 0 0 0 0 0 0 0 0 0 0 0 0 0 0 0 0 0 0 0 0 0 0 0 0 0 0 0 0
0 0 0 0 0 0 0 0 0 1 1 1 1 1 1 1 0 1 1 1 1 1 0 0 1 1 1 1 1 0 0 0 0 0 0 0 0 0 0 0 0 0 0
0 0 0 0 1 1 1 1 1 1 1 1 1 1 1 1 1 1 1 1 1 1 1 1 1 1 1 1 1 1 1 0 0 0 0 1 1 0 0 0 0 0 0
1 1 1 1 1 1 1 1 1 1 1 1 1 1 1 1 1 1 1 1 1 1 1 1 1 1 1 1 1 1 1 0 0 0 1 1 1 1 0 0 0 0 0
1 1 1 1 1 1 1 1 1 1 2 2 2 2 2 2 2 1 1 1 1 1 1 1 1 1 1 1 1 1 1 0 0 0 1 1 1 1 0 0 0 0 0
1 1 1 1 1 1 1 1 1 1 2 2 2 2 2 2 2 2 2 2 2 2 1 1 1 1 1 1 1 1 1 0 0 1 1 1 1 0 0 0 0 0 0
1 1 1 1 1 1 1 1 1 1 1 1 2 2 2 2 2 2 2 2 2 2 2 2 1 1 1 1 1 1 1 0 0 1 1 1 1 0 0 0 0 0 0
1 1 1 1 1 1 1 1 1 1 1 1 1 1 2 2 2 2 2 2 2 2 2 2 1 1 1 1 1 1 1 1 1 1 1 1 1 0 0 0 0 0 0
1 1 1 1 1 1 1 1 1 1 1 1 1 1 1 2 2 2 2 2 2 2 2 2 1 1 1 1 1 1 1 1 1 1 1 1 0 0 0 0 0 0 0
1 1 1 1 1 1 1 1 1 1 1 1 1 1 1 1 2 2 2 2 2 2 2 2 1 1 1 1 1 1 1 1 1 1 1 0 0 0 0 0 0 0 0
1 1 1 1 1 1 1 1 0 1 1 1 1 1 1 1 1 2 2 2 2 2 2 2 1 1 1 1 1 1 1 1 1 1 0 0 0 0 0 0 0 0 0
1 1 1 1 0 0 0 0 0 0 0 0 0 0 0 1 1 1 1 1 1 1 1 1 1 1 1 1 1 1 1 1 0 0 0 0 0 0 0 0 0 0 0
0 0 0 0 0 0 0 0 0 0 0 0 0 0 0 0 0 1 1 1 1 1 1 1 1 1 1 1 1 0 0 0 0 0 0 0 0 0 0 0 0 0 0
0 0 0 0 0 0 0 0 0 0 0 0 0 0 0 0 0 0 0 1 1 1 1 1 1 1 1 1 0 0 0 0 0 0 0 0 0 0 0 0 0 0 0
0 0 0 0 0 0 0 0 0 0 0 0 0 0 0 0 0 0 0 0 1 1 1 1 1 1 1 0 0 0 0 0 0 0 0 0 0 0 0 0 0 0 0
0 0 0 0 0 0 0 0 0 0 0 0 0 0 0 0 0 0 0 0 0 1 1 1 1 1 0 0 0 0 0 0 0 0 0 0 0 0 0 0 0 0 0
0 0 0 0 0 0 0 0 0 0 0 0 0 0 0 -0 0 0 0 0 0 0 1 1 1 1 0 0 0 0 0 0 0 0 0 0 0 0 0 0 0 0 0
0 0 0 0 0 0 0 0 0 0 0 0 0 0 0 -0 0 0 0 0 0 0 0 1 1 1 1 0 0 0 0 0 0 0 0 0 0 0 0 0 0 0 0
Wind_Speed
14 19 21 17 15 14 13 12 12 13 14 14 15 14 14 13 13 12 11 11 9 8 8 8 8 8 9 9 9 10 10 10 10 10 10 10 11 10 10 9 8 11 12
17 20 21 17 16 14 13 13 12 13 13 14 14 14 13 13 12 12 11 10 9 8 8 8 8 8 8 9 9 9 9 9 9 9 10 11 10 9 9 6 2 11 11
18 20 20 17 16 15 14 13 12 12 13 13 13 13 12 12 12 11 11 10 9 8 8 8 8 8 8 8 8 9 9 8 8 9 9 8 10 8 8 6 10 12 11
18 19 18 18 16 15 14 13 12 12 12 12 12 12 12 11 11 10 10 9 9 8 8 8 7 8 8 8 8 8 8 8 8 8 7 6 9 10 8 8 9 10 10
17 16 17 19 16 15 14 13 12 12 11 11 11 11 11 10 10 10 10 9 8 8 8 8 8 8 8 8 8 8 8 7 7 9 5 5 6 11 8 8 9 9 10
17 16 18 17 16 15 14 13 12 11 11 10 10 10 10 10 9 10 9 9 8 8 8 8 8 8 8 8 8 8 8 8 9 8 6 5 6 10 9 9 9 9 9
16 15 18 16 16 15 14 13 12 11 11 10 10 9 9 9 9 9 9 8 8 8 8 8 8 8 8 9 9 9 9 9 10 6 6 6 6 10 9 10 9 9 10
15 14 17 16 15 14 14 13 12 12 11 10 10 10 9 9 9 9 9 9 9 9 8 8 8 9 9 9 9 9 10 11 11 8 7 6 8 8 9 10 11 11 11
13 13 14 15 14 14 13 12 12 12 11 11 11 10 10 10 10 10 9 9 9 9 9 9 10 10 10 10 10 10 11 11 12 8 8 7 11 10 11 12 13 13 13
12 12 11 12 12 12 13 13 12 12 12 11 11 11 11 11 11 12 11 11 11 11 11 11 11 12 12 12 12 12 12 11 14 11 8 7 12 11 12 12 14 15 15
11 10 10 11 11 10 10 12 13 13 12 12 13 13 12 12 13 13 15 13 13 13 13 13 13 13 13 14 14 14 13 10 13 10 7 8 12 11 12 12 13 16 17
13 12 10 10 10 9 8 8 8 9 10 11 9 11 11 10 9 10 9 12 14 15 15 15 15 14 14 11 14 15 10 13 12 9 7 10 11 12 13 13 13 15 17
12 11 10 9 8 8 6 5 5 5 6 9 11 11 10 9 8 9 8 10 13 15 13 13 14 12 12 10 8 10 11 10 8 8 7 12 13 14 15 14 14 14 16
10 10 9 8 7 6 5 5 5 5 5 7 9 11 10 8 9 9 8 9 8 8 9 9 8 11 12 12 12 11 12 9 8 6 5 11 13 14 15 15 15 15 16
7 7 6 5 5 5 5 5 6 6 7 9 9 10 11 10 10 10 8 8 9 9 9 9 10 11 11 12 11 12 13 13 11 10 6 11 13 14 15 15 15 16 15
4 4 3 3 3 4 5 5 6 7 7 9 9 11 12 10 10 10 10 9 10 10 9 9 11 10 10 9 12 13 13 13 12 12 10 10 14 14 14 14 15 15 15
4 3 2 1 2 4 5 7 6 7 9 9 9 11 12 12 12 11 10 10 10 10 10 9 11 9 10 11 13 13 11 12 12 12 12 9 10 14 15 14 14 14 15
6 6 5 4 4 4 5 6 6 7 8 8 9 10 12 12 13 11 10 10 10 9 8 8 8 8 9 9 9 9 9 9 13 12 11 10 9 9 13 16 15 14 15
6 5 5 5 6 6 6 6 6 6 6 7 7 8 9 10 11 10 8 8 8 7 8 8 7 8 8 8 9 9 9 9 10 11 12 13 12 11 10 12 15 14 16
5 5 4 4 5 6 5 4 4 5 5 5 6 7 8 8 9 8 6 7 7 7 7 7 7 7 7 7 9 8 8 9 8 9 11 11 10 12 13 11 10 13 17
5 5 5 5 6 5 5 6 6 7 6 5 5 7 8 7 6 5 5 5 6 6 7 7 6 8 8 6 7 7 8 10 10 8 9 9 10 11 10 9 9 9 9
5 5 5 5 6 6 6 5 5 6 6 5 5 6 8 8 6 4 4 5 5 5 6 6 6 7 7 6 7 7 7 8 8 9 8 8 9 8 10 11 9 8 8
4 5 5 6 6 7 7 6 6 5 5 5 6 5 7 8 8 6 6 5 6 6 5 6 7 9 8 7 8 7 6 6 5 7 7 7 7 7 8 8 9 9 9
4 5 5 6 7 7 7 7 9 7 7 7 6 6 7 7 7 7 6 6 6 5 6 7 8 8 9 8 7 7 8 6 5 4 7 7 7 7 7 6 7 7 8
6 7 7 7 8 8 8 8 8 9 8 7 7 7 7 6 6 6 6 6 6 6 6 7 7 8 8 9 7 7 8 6 8 7 5 6 7 7 7 6 6 6 6
8 9 9 9 10 10 10 10 10 10 10 10 10 9 7 6 5 5 5 4 5 5 5 6 7 9 9 9 8 7 7 7 8 8 7 6 6 5 5 4 5 4 4
Wind_Direction
156 146 149 158 159 158 156 153 152 156 158 159 157 156 155 155 154 153 153 153 150 148 141 134 130 128 126 122 121 121 122 125 125 123 120 116 116 118 120 130 154 118 115
148 144 150 157 159 159 157 154 151 154 157 158 158 157 156 156 156 157 157 158 159 158 149 138 133 130 128 126 126 128 130 133 135 132 132 128 123 122 126 133 76 110 128
147 143 152 156 159 160 158 155 152 153 156 158 158 157 157 157 159 161 162 164 167 166 156 146 140 137 135 134 134 136 139 143 146 148 170 153 129 130 130 120 106 125 133
147 147 155 154 160 161 159 157 155 155 156 158 160 160 160 160 162 165 167 169 172 170 160 154 151 147 144 143 143 146 150 155 158 178 191 141 140 134 144 137 133 139 142
146 148 147 156 161 162 161 160 159 158 159 161 163 165 166 167 170 172 173 174 175 171 166 166 164 158 155 155 155 158 162 167 170 214 151 150 134 138 158 154 151 150 150
149 153 146 160 161 162 162 163 163 162 163 165 168 171 174 178 181 182 179 178 178 175 175 176 174 169 167 167 168 171 175 178 197 196 159 179 144 150 168 171 169 166 163
154 153 148 162 163 164 165 166 168 168 169 172 175 178 182 187 193 192 188 188 187 186 187 187 186 181 180 181 183 184 189 195 226 188 182 192 142 150 179 183 185 182 178
155 155 146 161 165 166 169 171 173 175 177 180 184 188 192 196 202 206 205 205 202 199 199 199 199 194 193 195 197 197 201 216 223 210 205 201 140 166 195 196 196 195 191
156 154 153 165 169 172 175 177 179 182 185 190 194 197 201 207 212 216 218 218 217 214 210 210 211 208 205 206 208 209 211 225 251 224 214 208 155 186 211 210 203 202 201
160 162 161 170 171 178 180 183 189 192 195 199 204 208 211 214 219 223 226 218 224 225 223 222 220 219 216 215 215 216 218 222 239 237 220 192 158 194 218 220 210 203 205
165 167 171 172 174 185 190 180 193 200 204 208 209 211 217 223 219 212 222 217 222 229 230 229 228 226 225 221 221 221 220 231 230 240 229 162 165 201 223 227 217 207 205
170 176 177 181 174 190 197 187 205 210 205 217 225 217 219 228 235 234 205 212 226 233 235 233 234 233 232 229 215 213 226 230 241 234 220 160 182 210 224 229 226 215 209
173 180 179 184 185 198 205 211 216 225 223 225 230 231 235 238 234 233 225 209 220 227 232 227 227 232 231 232 231 217 226 232 231 236 216 171 197 216 223 226 227 222 215
176 182 185 185 193 208 225 231 239 242 240 242 235 234 235 234 237 238 233 231 222 221 225 234 231 233 236 236 234 235 233 234 238 238 223 185 205 219 225 227 227 225 220
171 179 180 194 207 217 232 253 256 259 260 257 255 248 246 243 240 237 237 239 238 233 226 228 237 239 240 239 238 237 238 237 237 237 227 203 215 223 228 229 228 226 221
154 166 177 208 233 255 261 268 274 273 269 271 267 261 254 251 249 246 240 237 240 239 240 239 240 241 243 242 241 239 238 238 236 233 235 217 215 220 225 228 227 224 221
66 64 50 319 313 305 298 292 284 281 282 279 276 270 263 255 250 247 246 241 240 240 239 242 247 246 244 242 240 240 237 237 236 232 234 234 223 212 217 222 223 222 221
52 51 32 6 346 324 310 303 297 296 295 289 283 275 268 264 258 249 245 243 242 240 238 238 241 242 242 244 243 242 238 234 234 232 231 230 232 231 213 211 217 220 221
50 46 32 13 353 336 318 304 301 303 299 296 290 285 278 269 263 253 248 248 245 242 238 241 235 238 241 240 240 234 235 233 232 232 231 233 229 231 235 203 205 215 221
53 44 26 13 358 334 325 317 315 315 316 317 316 310 299 282 273 266 256 255 254 241 235 233 240 238 244 242 249 244 232 232 230 233 235 233 232 230 231 230 212 213 215
52 39 23 11 2 346 347 340 340 338 334 335 340 341 329 314 299 282 277 266 260 252 242 234 229 232 232 230 241 243 234 230 230 232 233 238 232 230 236 231 231 235 209
46 34 21 11 2 350 354 335 330 329 329 342 349 347 347 340 322 298 287 284 267 260 251 243 233 245 240 221 236 245 239 221 213 225 224 224 234 225 224 223 227 227 245
34 17 6 356 346 350 340 333 336 328 327 342 346 349 353 350 345 336 312 294 279 268 258 249 236 236 242 229 229 245 248 241 207 189 211 219 218 224 228 225 222 223 229
360 349 344 338 337 334 326 336 338 334 334 338 333 341 339 343 347 348 338 322 307 286 269 254 240 237 238 236 220 234 260 303 275 200 187 196 206 218 233 234 231 224 228
332 331 329 329 326 322 317 310 306 314 322 323 326 326 324 330 338 346 348 339 327 308 289 271 258 241 234 238 234 218 220 225 243 266 221 185 195 205 210 223 237 240 236
321 322 322 324 320 315 307 302 296 299 303 308 310 311 310 313 316 325 325 326 317 309 300 281 263 245 242 242 245 237 223 218 218 227 235 220 211 201 202 216 228 228 235